Location: Ferchesar
(52.6477°N, 12.4298°E)
Time: 17:26:17
(UTC+01:00)

Explorer 7 - Visible Passes

Search period start: 03 December 2022 00:00
Search period end: 13 December 2022 00:00
Orbit: 481 x 665 km, 50.3° (Epoch: 03 December)

Date Brightness Start Highest point End Pass type
(mag) Time Alt. Az. Time Alt. Az. Time Alt. Az.
03 Dec 9.0 16:57:15 10° W 17:00:19 24° SSW 17:03:25 10° SSE visible
04 Dec 9.5 16:59:20 10° W 17:01:58 18° SW 17:04:37 10° S visible
05 Dec 9.7 17:01:41 10° WSW 17:03:34 13° SW 17:05:28 10° S visible
